owner,sensor,date,latitude,longitude,sea_surface_height_above_sea_level,qcFlag 
TCOON,ioos:station:TCOON:057:1,2016-03-01T00:30:00Z,28.4460,-96.3961,3.587,1111122 
TCOON,ioos:station:TCOON:057:1,2016-03-01T02:18:00Z,28.4460,-96.3961,3.564,1111122 
TCOON,ioos:station:TCOON:057:1,2016-03-01T03:18:00Z,28.4460,-96.3961,3.551,1111122 
TCOON,ioos:station:TCOON:057:1,2016-03-01T04:18:00Z,28.4460,-96.3961,3.537,1111122 
TCOON,ioos:station:TCOON:057:1,2016-03-01T09:18:00Z,28.4460,-96.3961,3.447,1111122 
TCOON,ioos:station:TCOON:057:1,2016-03-01T10:18:00Z,28.4460,-96.3961,3.452,1111122 
TCOON,ioos:station:TCOON:057:1,2016-03-01T11:18:00Z,28.4460,-96.3961,3.446,1111122 
TCOON,ioos:station:TCOON:057:1,2016-03-01T12:18:00Z,28.4460,-96.3961,3.477,1111122 
TCOON,ioos:station:TCOON:057:1,2016-03-01T13:18:00Z,28.4460,-96.3961,3.492,1111122 
TCOON,ioos:station:TCOON:057:1,2016-03-01T15:36:00Z,28.4460,-96.3961,3.522,1111122 
TCOON,ioos:station:TCOON:057:1,2016-03-01T16:18:00Z,28.4460,-96.3961,3.543,1111122 
TCOON,ioos:station:TCOON:057:1,2016-03-01T17:18:00Z,28.4460,-96.3961,3.584,1111122 
TCOON,ioos:station:TCOON:057:1,2016-03-01T18:18:00Z,28.4460,-96.3961,3.607,1111122 
TCOON,ioos:station:TCOON:057:1,2016-03-01T19:36:00Z,28.4460,-96.3961,3.644,1111122 
TCOON,ioos:station:TCOON:057:1,2016-03-01T20:24:00Z,28.4460,-96.3961,3.672,1111122 
TCOON,ioos:station:TCOON:057:1,2016-03-01T21:24:00Z,28.4460,-96.3961,3.684,1111122 
TCOON,ioos:station:TCOON:057:1,2016-03-01T22:18:00Z,28.4460,-96.3961,3.705,1111122 
TCOON,ioos:station:TCOON:057:1,2016-03-01T23:18:00Z,28.4460,-96.3961,3.705,1111122 
TCOON,ioos:station:TCOON:057:1,2016-03-02T00:18:00Z,28.4460,-96.3961,3.709,1111122 
TCOON,ioos:station:TCOON:057:1,2016-03-02T01:18:00Z,28.4460,-96.3961,3.698,1111122 
TCOON,ioos:station:TCOON:057:1,2016-03-02T02:18:00Z,28.4460,-96.3961,3.688,1111122 
TCOON,ioos:station:TCOON:057:1,2016-03-02T03:24:00Z,28.4460,-96.3961,3.647,1111122 
TCOON,ioos:station:TCOON:057:1,2016-03-02T04:24:00Z,28.4460,-96.3961,3.628,1111122 
TCOON,ioos:station:TCOON:057:1,2016-03-02T05:54:00Z,28.4460,-96.3961,3.589,1111122 
TCOON,ioos:station:TCOON:057:1,2016-03-02T06:24:00Z,28.4460,-96.3961,3.578,1111122 
TCOON,ioos:station:TCOON:057:1,2016-03-02T07:24:00Z,28.4460,-96.3961,3.557,1111122 
TCOON,ioos:station:TCOON:057:1,2016-03-02T08:24:00Z,28.4460,-96.3961,3.534,1111122 
TCOON,ioos:station:TCOON:057:1,2016-03-02T09:42:00Z,28.4460,-96.3961,3.524,1111122 
TCOON,ioos:station:TCOON:057:1,2016-03-02T10:18:00Z,28.4460,-96.3961,3.508,1111122 
TCOON,ioos:station:TCOON:057:1,2016-03-02T11:18:00Z,28.4460,-96.3961,3.468,1111122 
TCOON,ioos:station:TCOON:057:1,2016-03-02T12:18:00Z,28.4460,-96.3961,3.456,1111122 
TCOON,ioos:station:TCOON:057:1,2016-03-02T13:18:00Z,28.4460,-96.3961,3.488,1111122 
TCOON,ioos:station:TCOON:057:1,2016-03-02T14:18:00Z,28.4460,-96.3961,3.515,1111122 
TCOON,ioos:station:TCOON:057:1,2016-03-02T15:18:00Z,28.4460,-96.3961,3.528,1111122 
TCOON,ioos:station:TCOON:057:1,2016-03-02T16:18:00Z,28.4460,-96.3961,3.55,1111122 
TCOON,ioos:station:TCOON:057:1,2016-03-02T17:18:00Z,28.4460,-96.3961,3.569,1111122 
TCOON,ioos:station:TCOON:057:1,2016-03-02T18:18:00Z,28.4460,-96.3961,3.599,1111122 
TCOON,ioos:station:TCOON:057:1,2016-03-02T19:18:00Z,28.4460,-96.3961,3.62,1111122 
TCOON,ioos:station:TCOON:057:1,2016-03-02T20:18:00Z,28.4460,-96.3961,3.644,1111122 
TCOON,ioos:station:TCOON:057:1,2016-03-02T21:18:00Z,28.4460,-96.3961,3.663,1111122 
TCOON,ioos:station:TCOON:057:1,2016-03-02T22:18:00Z,28.4460,-96.3961,3.718,1111122 
TCOON,ioos:station:TCOON:057:1,2016-03-02T23:18:00Z,28.4460,-96.3961,3.717,1111122 
TCOON,ioos:station:TCOON:057:1,2016-03-03T00:18:00Z,28.4460,-96.3961,3.73,1111122 
TCOON,ioos:station:TCOON:057:1,2016-03-03T01:18:00Z,28.4460,-96.3961,3.749,1111122 
TCOON,ioos:station:TCOON:057:1,2016-03-03T02:18:00Z,28.4460,-96.3961,3.761,1111122 
TCOON,ioos:station:TCOON:057:1,2016-03-03T03:18:00Z,28.4460,-96.3961,3.757,1111122 
TCOON,ioos:station:TCOON:057:1,2016-03-03T04:18:00Z,28.4460,-96.3961,3.749,1111122 
TCOON,ioos:station:TCOON:057:1,2016-03-03T05:18:00Z,28.4460,-96.3961,3.739,1111122 
TCOON,ioos:station:TCOON:057:1,2016-03-03T06:18:00Z,28.4460,-96.3961,3.71,1111122 
TCOON,ioos:station:TCOON:057:1,2016-03-03T07:18:00Z,28.4460,-96.3961,3.688,1111122 
TCOON,ioos:station:TCOON:057:1,2016-03-03T08:18:00Z,28.4460,-96.3961,3.648,1111122 
TCOON,ioos:station:TCOON:057:1,2016-03-03T09:18:00Z,28.4460,-96.3961,3.628,1111122 
TCOON,ioos:station:TCOON:057:1,2016-03-03T10:18:00Z,28.4460,-96.3961,3.629,1111122 
TCOON,ioos:station:TCOON:057:1,2016-03-03T11:18:00Z,28.4460,-96.3961,3.601,1111122 
TCOON,ioos:station:TCOON:057:1,2016-03-03T12:18:00Z,28.4460,-96.3961,3.59,1111122 
TCOON,ioos:station:TCOON:057:1,2016-03-03T13:18:00Z,28.4460,-96.3961,3.596,1111122 
TCOON,ioos:station:TCOON:057:1,2016-03-03T14:18:00Z,28.4460,-96.3961,3.61,1111122 
TCOON,ioos:station:TCOON:057:1,2016-03-03T15:18:00Z,28.4460,-96.3961,3.621,1111122 
TCOON,ioos:station:TCOON:057:1,2016-03-03T16:18:00Z,28.4460,-96.3961,3.644,1111122 
TCOON,ioos:station:TCOON:057:1,2016-03-03T17:18:00Z,28.4460,-96.3961,3.659,1111122 
TCOON,ioos:station:TCOON:057:1,2016-03-03T18:18:00Z,28.4460,-96.3961,3.709,1111122 
TCOON,ioos:station:TCOON:057:1,2016-03-03T19:24:00Z,28.4460,-96.3961,3.716,1111122 
TCOON,ioos:station:TCOON:057:1,2016-03-03T20:18:00Z,28.4460,-96.3961,3.732,1111122 
TCOON,ioos:station:TCOON:057:1,2016-03-03T21:18:00Z,28.4460,-96.3961,3.753,1111122 
TCOON,ioos:station:TCOON:057:1,2016-03-03T22:18:00Z,28.4460,-96.3961,3.76,1111122 
TCOON,ioos:station:TCOON:057:1,2016-03-03T23:18:00Z,28.4460,-96.3961,3.76,1111122 
TCOON,ioos:station:TCOON:057:1,2016-03-04T00:18:00Z,28.4460,-96.3961,3.752,1111122 
TCOON,ioos:station:TCOON:057:1,2016-03-04T01:18:00Z,28.4460,-96.3961,3.735,1111122 
TCOON,ioos:station:TCOON:057:1,2016-03-04T02:18:00Z,28.4460,-96.3961,3.736,1111122 
TCOON,ioos:station:TCOON:057:1,2016-03-04T03:18:00Z,28.4460,-96.3961,3.714,1111122 
TCOON,ioos:station:TCOON:057:1,2016-03-04T04:18:00Z,28.4460,-96.3961,3.714,1111122 
TCOON,ioos:station:TCOON:057:1,2016-03-04T05:18:00Z,28.4460,-96.3961,3.69,1111122 
TCOON,ioos:station:TCOON:057:1,2016-03-04T06:18:00Z,28.4460,-96.3961,3.653,1111122 
TCOON,ioos:station:TCOON:057:1,2016-03-04T07:18:00Z,28.4460,-96.3961,3.608,1111122 
TCOON,ioos:station:TCOON:057:1,2016-03-04T08:18:00Z,28.4460,-96.3961,3.59,1111122 
TCOON,ioos:station:TCOON:057:1,2016-03-04T09:36:00Z,28.4460,-96.3961,3.515,1111122 
TCOON,ioos:station:TCOON:057:1,2016-03-04T10:18:00Z,28.4460,-96.3961,3.497,1111122 
TCOON,ioos:station:TCOON:057:1,2016-03-04T11:18:00Z,28.4460,-96.3961,3.461,1111122 
TCOON,ioos:station:TCOON:057:1,2016-03-04T12:18:00Z,28.4460,-96.3961,3.434,1111122 
TCOON,ioos:station:TCOON:057:1,2016-03-04T13:18:00Z,28.4460,-96.3961,3.415,1111122 
TCOON,ioos:station:TCOON:057:1,2016-03-04T14:18:00Z,28.4460,-96.3961,3.429,1111122 
TCOON,ioos:station:TCOON:057:1,2016-03-04T15:18:00Z,28.4460,-96.3961,3.434,1111122 
TCOON,ioos:station:TCOON:057:1,2016-03-04T16:18:00Z,28.4460,-96.3961,3.444,1111122 
TCOON,ioos:station:TCOON:057:1,2016-03-04T17:18:00Z,28.4460,-96.3961,3.477,1111122 
TCOON,ioos:station:TCOON:057:1,2016-03-04T18:18:00Z,28.4460,-96.3961,3.484,1111122 
TCOON,ioos:station:TCOON:057:1,2016-03-04T19:18:00Z,28.4460,-96.3961,3.494,1111122 
TCOON,ioos:station:TCOON:057:1,2016-03-04T20:18:00Z,28.4460,-96.3961,3.558,1111122 
TCOON,ioos:station:TCOON:057:1,2016-03-04T21:18:00Z,28.4460,-96.3961,3.584,1111122 
TCOON,ioos:station:TCOON:057:1,2016-03-04T22:18:00Z,28.4460,-96.3961,3.62,1111122 
TCOON,ioos:station:TCOON:057:1,2016-03-04T23:18:00Z,28.4460,-96.3961,3.651,1111122 
TCOON,ioos:station:TCOON:057:1,2016-03-05T00:18:00Z,28.4460,-96.3961,3.649,1111122 
TCOON,ioos:station:TCOON:057:1,2016-03-05T01:18:00Z,28.4460,-96.3961,3.66,1111122 
TCOON,ioos:station:TCOON:057:1,2016-03-05T02:18:00Z,28.4460,-96.3961,3.671,1111122 
TCOON,ioos:station:TCOON:057:1,2016-03-05T03:18:00Z,28.4460,-96.3961,3.679,1111122 
TCOON,ioos:station:TCOON:057:1,2016-03-05T04:18:00Z,28.4460,-96.3961,3.688,1111122 
TCOON,ioos:station:TCOON:057:1,2016-03-05T05:18:00Z,28.4460,-96.3961,3.683,1111122 
TCOON,ioos:station:TCOON:057:1,2016-03-05T06:18:00Z,28.4460,-96.3961,3.664,1111122 
TCOON,ioos:station:TCOON:057:1,2016-03-05T07:18:00Z,28.4460,-96.3961,3.644,1111122 
TCOON,ioos:station:TCOON:057:1,2016-03-05T08:18:00Z,28.4460,-96.3961,3.629,1111122 
TCOON,ioos:station:TCOON:057:1,2016-03-05T09:30:00Z,28.4460,-96.3961,3.596,1111122 
TCOON,ioos:station:TCOON:057:1,2016-03-05T10:18:00Z,28.4460,-96.3961,3.576,1111122 
TCOON,ioos:station:TCOON:057:1,2016-03-05T11:18:00Z,28.4460,-96.3961,3.558,1111122 
TCOON,ioos:station:TCOON:057:1,2016-03-05T12:18:00Z,28.4460,-96.3961,3.533,1111122 
TCOON,ioos:station:TCOON:057:1,2016-03-05T13:18:00Z,28.4460,-96.3961,3.523,1111122 
TCOON,ioos:station:TCOON:057:1,2016-03-05T14:18:00Z,28.4460,-96.3961,3.5,1111122 
TCOON,ioos:station:TCOON:057:1,2016-03-05T15:18:00Z,28.4460,-96.3961,3.505,1111122 
TCOON,ioos:station:TCOON:057:1,2016-03-05T16:18:00Z,28.4460,-96.3961,3.507,1111122 
TCOON,ioos:station:TCOON:057:1,2016-03-05T17:18:00Z,28.4460,-96.3961,3.528,1111122 
TCOON,ioos:station:TCOON:057:1,2016-03-05T18:18:00Z,28.4460,-96.3961,3.543,1111122 
TCOON,ioos:station:TCOON:057:1,2016-03-05T19:18:00Z,28.4460,-96.3961,3.59,1111122 
TCOON,ioos:station:TCOON:057:1,2016-03-05T20:18:00Z,28.4460,-96.3961,3.616,1111122 
TCOON,ioos:station:TCOON:057:1,2016-03-05T21:18:00Z,28.4460,-96.3961,3.656,1111122 
TCOON,ioos:station:TCOON:057:1,2016-03-05T22:18:00Z,28.4460,-96.3961,3.673,1111122 
TCOON,ioos:station:TCOON:057:1,2016-03-05T23:18:00Z,28.4460,-96.3961,3.691,1111122 
TCOON,ioos:station:TCOON:057:1,2016-03-06T00:24:00Z,28.4460,-96.3961,3.713,1111122 
TCOON,ioos:station:TCOON:057:1,2016-03-06T01:18:00Z,28.4460,-96.3961,3.716,1111122 
TCOON,ioos:station:TCOON:057:1,2016-03-06T02:18:00Z,28.4460,-96.3961,3.713,1111122 
TCOON,ioos:station:TCOON:057:1,2016-03-06T03:18:00Z,28.4460,-96.3961,3.707,1111122 
TCOON,ioos:station:TCOON:057:1,2016-03-06T04:18:00Z,28.4460,-96.3961,3.709,1111122 
TCOON,ioos:station:TCOON:057:1,2016-03-06T05:18:00Z,28.4460,-96.3961,3.689,1111122 
TCOON,ioos:station:TCOON:057:1,2016-03-06T06:18:00Z,28.4460,-96.3961,3.66,1111122 
TCOON,ioos:station:TCOON:057:1,2016-03-06T07:18:00Z,28.4460,-96.3961,3.649,1111122 
TCOON,ioos:station:TCOON:057:1,2016-03-06T08:18:00Z,28.4460,-96.3961,3.615,1111122 
TCOON,ioos:station:TCOON:057:1,2016-03-06T09:36:00Z,28.4460,-96.3961,3.582,1111122 
TCOON,ioos:station:TCOON:057:1,2016-03-06T10:18:00Z,28.4460,-96.3961,3.568,1111122 
TCOON,ioos:station:TCOON:057:1,2016-03-06T11:18:00Z,28.4460,-96.3961,3.538,1111122 
TCOON,ioos:station:TCOON:057:1,2016-03-06T12:18:00Z,28.4460,-96.3961,3.514,1111122 
TCOON,ioos:station:TCOON:057:1,2016-03-06T13:18:00Z,28.4460,-96.3961,3.486,1111122 
TCOON,ioos:station:TCOON:057:1,2016-03-06T14:18:00Z,28.4460,-96.3961,3.461,1111122 
TCOON,ioos:station:TCOON:057:1,2016-03-06T15:18:00Z,28.4460,-96.3961,3.428,1111122 
TCOON,ioos:station:TCOON:057:1,2016-03-06T16:18:00Z,28.4460,-96.3961,3.424,1111122 
TCOON,ioos:station:TCOON:057:1,2016-03-06T17:18:00Z,28.4460,-96.3961,3.456,1111122 
TCOON,ioos:station:TCOON:057:1,2016-03-06T18:18:00Z,28.4460,-96.3961,3.484,1111122 
TCOON,ioos:station:TCOON:057:1,2016-03-06T19:18:00Z,28.4460,-96.3961,3.525,1111122 
TCOON,ioos:station:TCOON:057:1,2016-03-06T20:18:00Z,28.4460,-96.3961,3.557,1111122 
TCOON,ioos:station:TCOON:057:1,2016-03-06T21:18:00Z,28.4460,-96.3961,3.588,1111122 
TCOON,ioos:station:TCOON:057:1,2016-03-06T22:18:00Z,28.4460,-96.3961,3.626,1111122 
TCOON,ioos:station:TCOON:057:1,2016-03-06T23:18:00Z,28.4460,-96.3961,3.653,1111122 
TCOON,ioos:station:TCOON:057:1,2016-03-07T00:18:00Z,28.4460,-96.3961,3.663,1111122 
TCOON,ioos:station:TCOON:057:1,2016-03-07T01:18:00Z,28.4460,-96.3961,3.68,1111122 
TCOON,ioos:station:TCOON:057:1,2016-03-07T02:18:00Z,28.4460,-96.3961,3.681,1111122 
TCOON,ioos:station:TCOON:057:1,2016-03-07T03:18:00Z,28.4460,-96.3961,3.695,1111122 
TCOON,ioos:station:TCOON:057:1,2016-03-07T04:18:00Z,28.4460,-96.3961,3.729,1111122 
TCOON,ioos:station:TCOON:057:1,2016-03-07T05:18:00Z,28.4460,-96.3961,3.738,1111122 
TCOON,ioos:station:TCOON:057:1,2016-03-07T06:18:00Z,28.4460,-96.3961,3.749,1111122 
TCOON,ioos:station:TCOON:057:1,2016-03-07T07:18:00Z,28.4460,-96.3961,3.749,1111122 
TCOON,ioos:station:TCOON:057:1,2016-03-07T08:18:00Z,28.4460,-96.3961,3.731,1111122 
TCOON,ioos:station:TCOON:057:1,2016-03-07T09:42:00Z,28.4460,-96.3961,3.706,1111122 
TCOON,ioos:station:TCOON:057:1,2016-03-07T10:18:00Z,28.4460,-96.3961,3.688,1111122 
TCOON,ioos:station:TCOON:057:1,2016-03-07T11:18:00Z,28.4460,-96.3961,3.664,1111122 
TCOON,ioos:station:TCOON:057:1,2016-03-07T12:42:00Z,28.4460,-96.3961,3.628,1111122 
TCOON,ioos:station:TCOON:057:1,2016-03-07T13:24:00Z,28.4460,-96.3961,3.601,1111122 
TCOON,ioos:station:TCOON:057:1,2016-03-07T14:24:00Z,28.4460,-96.3961,3.572,1111122 
TCOON,ioos:station:TCOON:057:1,2016-03-07T15:24:00Z,28.4460,-96.3961,3.539,1111122 
TCOON,ioos:station:TCOON:057:1,2016-03-07T16:18:00Z,28.4460,-96.3961,3.529,1111122 
TCOON,ioos:station:TCOON:057:1,2016-03-07T17:24:00Z,28.4460,-96.3961,3.54,1111122 
TCOON,ioos:station:TCOON:057:1,2016-03-07T18:36:00Z,28.4460,-96.3961,3.571,1111122 
TCOON,ioos:station:TCOON:057:1,2016-03-07T19:18:00Z,28.4460,-96.3961,3.607,1111122 
TCOON,ioos:station:TCOON:057:1,2016-03-07T20:24:00Z,28.4460,-96.3961,3.659,1111122 
TCOON,ioos:station:TCOON:057:1,2016-03-07T21:24:00Z,28.4460,-96.3961,3.702,1111122 
TCOON,ioos:station:TCOON:057:1,2016-03-08T10:30:00Z,28.4460,-96.3961,3.864,1111122 
TCOON,ioos:station:TCOON:057:1,2016-03-08T11:24:00Z,28.4460,-96.3961,3.821,1111122 
TCOON,ioos:station:TCOON:057:1,2016-03-08T12:18:00Z,28.4460,-96.3961,3.805,1111122 
TCOON,ioos:station:TCOON:057:1,2016-03-08T13:18:00Z,28.4460,-96.3961,3.777,1111122 
TCOON,ioos:station:TCOON:057:1,2016-03-08T14:18:00Z,28.4460,-96.3961,3.732,1111122 
TCOON,ioos:station:TCOON:057:1,2016-03-08T15:18:00Z,28.4460,-96.3961,3.698,1111122 
TCOON,ioos:station:TCOON:057:1,2016-03-08T16:18:00Z,28.4460,-96.3961,3.692,1111122 
TCOON,ioos:station:TCOON:057:1,2016-03-08T17:18:00Z,28.4460,-96.3961,3.662,1111122 
TCOON,ioos:station:TCOON:057:1,2016-03-08T18:24:00Z,28.4460,-96.3961,3.665,1111122 
TCOON,ioos:station:TCOON:057:1,2016-03-08T19:24:00Z,28.4460,-96.3961,3.687,1111122 
TCOON,ioos:station:TCOON:057:1,2016-03-08T20:24:00Z,28.4460,-96.3961,3.72,1111122 
TCOON,ioos:station:TCOON:057:1,2016-03-08T21:24:00Z,28.4460,-96.3961,3.788,1111122 
TCOON,ioos:station:TCOON:057:1,2016-03-08T22:18:00Z,28.4460,-96.3961,3.82,1111122 
TCOON,ioos:station:TCOON:057:1,2016-03-08T23:18:00Z,28.4460,-96.3961,3.85,1111122 
TCOON,ioos:station:TCOON:057:1,2016-03-09T00:18:00Z,28.4460,-96.3961,3.839,1111122 
TCOON,ioos:station:TCOON:057:1,2016-03-09T01:18:00Z,28.4460,-96.3961,3.876,1111122 
TCOON,ioos:station:TCOON:057:1,2016-03-09T02:18:00Z,28.4460,-96.3961,3.889,1111122 
TCOON,ioos:station:TCOON:057:1,2016-03-09T03:24:00Z,28.4460,-96.3961,3.906,1111122 
TCOON,ioos:station:TCOON:057:1,2016-03-09T04:36:00Z,28.4460,-96.3961,3.917,1111122 
TCOON,ioos:station:TCOON:057:1,2016-03-09T05:48:00Z,28.4460,-96.3961,3.896,1111122 
TCOON,ioos:station:TCOON:057:1,2016-03-09T06:30:00Z,28.4460,-96.3961,3.958,1111122 
TCOON,ioos:station:TCOON:057:1,2016-03-09T07:18:00Z,28.4460,-96.3961,3.947,1111122 
TCOON,ioos:station:TCOON:057:1,2016-03-09T08:18:00Z,28.4460,-96.3961,3.997,1111122 
TCOON,ioos:station:TCOON:057:1,2016-03-09T09:42:00Z,28.4460,-96.3961,4.01,1111122 
TCOON,ioos:station:TCOON:057:1,2016-03-09T10:18:00Z,28.4460,-96.3961,4.022,1111122 
TCOON,ioos:station:TCOON:057:1,2016-03-09T11:18:00Z,28.4460,-96.3961,3.998,1111122 
TCOON,ioos:station:TCOON:057:1,2016-03-09T12:18:00Z,28.4460,-96.3961,3.967,1111122 
TCOON,ioos:station:TCOON:057:1,2016-03-09T13:18:00Z,28.4460,-96.3961,3.996,1111122 
TCOON,ioos:station:TCOON:057:1,2016-03-09T14:18:00Z,28.4460,-96.3961,3.906,1111122 
TCOON,ioos:station:TCOON:057:1,2016-03-09T15:18:00Z,28.4460,-96.3961,3.923,1111122 
TCOON,ioos:station:TCOON:057:1,2016-03-09T16:24:00Z,28.4460,-96.3961,3.875,1111122 
TCOON,ioos:station:TCOON:057:1,2016-03-09T17:24:00Z,28.4460,-96.3961,3.881,1111122 
TCOON,ioos:station:TCOON:057:1,2016-03-09T18:24:00Z,28.4460,-96.3961,3.887,1111122 
TCOON,ioos:station:TCOON:057:1,2016-03-09T19:24:00Z,28.4460,-96.3961,3.904,1111122 
TCOON,ioos:station:TCOON:057:1,2016-03-09T20:24:00Z,28.4460,-96.3961,3.887,1111122 
TCOON,ioos:station:TCOON:057:1,2016-03-09T21:18:00Z,28.4460,-96.3961,3.938,1111122 
TCOON,ioos:station:TCOON:057:1,2016-03-09T22:24:00Z,28.4460,-96.3961,3.974,1111122 
TCOON,ioos:station:TCOON:057:1,2016-03-09T23:18:00Z,28.4460,-96.3961,3.988,1111122 
TCOON,ioos:station:TCOON:057:1,2016-03-10T00:18:00Z,28.4460,-96.3961,3.99,1111122 
TCOON,ioos:station:TCOON:057:1,2016-03-10T01:18:00Z,28.4460,-96.3961,3.965,1111122 
TCOON,ioos:station:TCOON:057:1,2016-03-10T02:18:00Z,28.4460,-96.3961,3.972,1111122 
TCOON,ioos:station:TCOON:057:1,2016-03-10T03:18:00Z,28.4460,-96.3961,3.986,1111122 
TCOON,ioos:station:TCOON:057:1,2016-03-10T04:18:00Z,28.4460,-96.3961,4.002,1111122 
TCOON,ioos:station:TCOON:057:1,2016-03-10T05:18:00Z,28.4460,-96.3961,4.023,1111122 
TCOON,ioos:station:TCOON:057:1,2016-03-10T06:24:00Z,28.4460,-96.3961,3.918,1111122 
TCOON,ioos:station:TCOON:057:1,2016-03-10T07:24:00Z,28.4460,-96.3961,3.945,1111122 
TCOON,ioos:station:TCOON:057:1,2016-03-10T08:24:00Z,28.4460,-96.3961,4.007,1111122 
TCOON,ioos:station:TCOON:057:1,2016-03-10T09:54:00Z,28.4460,-96.3961,4.028,1111122 
TCOON,ioos:station:TCOON:057:1,2016-03-10T10:18:00Z,28.4460,-96.3961,4.048,1111122 
TCOON,ioos:station:TCOON:057:1,2016-03-10T12:18:00Z,28.4460,-96.3961,4.096,1111122 
TCOON,ioos:station:TCOON:057:1,2016-03-10T13:18:00Z,28.4460,-96.3961,3.996,1111122 
TCOON,ioos:station:TCOON:057:1,2016-03-10T14:18:00Z,28.4460,-96.3961,3.972,1111122 
TCOON,ioos:station:TCOON:057:1,2016-03-10T15:18:00Z,28.4460,-96.3961,3.988,1111122 
TCOON,ioos:station:TCOON:057:1,2016-03-10T16:24:00Z,28.4460,-96.3961,3.934,1111122 
TCOON,ioos:station:TCOON:057:1,2016-03-10T17:18:00Z,28.4460,-96.3961,3.93,1111122 
TCOON,ioos:station:TCOON:057:1,2016-03-10T18:24:00Z,28.4460,-96.3961,3.906,1111122 
TCOON,ioos:station:TCOON:057:1,2016-03-10T19:24:00Z,28.4460,-96.3961,3.899,1111122 
TCOON,ioos:station:TCOON:057:1,2016-03-10T20:18:00Z,28.4460,-96.3961,3.901,1111122 
TCOON,ioos:station:TCOON:057:1,2016-03-10T21:18:00Z,28.4460,-96.3961,3.914,1111122 
TCOON,ioos:station:TCOON:057:1,2016-03-10T22:24:00Z,28.4460,-96.3961,3.923,1111122 
TCOON,ioos:station:TCOON:057:1,2016-03-10T23:24:00Z,28.4460,-96.3961,3.979,1111122 
TCOON,ioos:station:TCOON:057:1,2016-03-11T00:24:00Z,28.4460,-96.3961,3.936,1111122 
TCOON,ioos:station:TCOON:057:1,2016-03-11T01:24:00Z,28.4460,-96.3961,3.958,1111122 
TCOON,ioos:station:TCOON:057:1,2016-03-11T02:24:00Z,28.4460,-96.3961,3.878,1111122 
TCOON,ioos:station:TCOON:057:1,2016-03-11T03:18:00Z,28.4460,-96.3961,3.907,1111122 
TCOON,ioos:station:TCOON:057:1,2016-03-11T04:24:00Z,28.4460,-96.3961,3.95,1111122 
TCOON,ioos:station:TCOON:057:1,2016-03-11T05:24:00Z,28.4460,-96.3961,3.892,1111122 
TCOON,ioos:station:TCOON:057:1,2016-03-11T06:24:00Z,28.4460,-96.3961,3.899,1111122 
TCOON,ioos:station:TCOON:057:1,2016-03-11T07:24:00Z,28.4460,-96.3961,3.902,1111122 
TCOON,ioos:station:TCOON:057:1,2016-03-11T08:24:00Z,28.4460,-96.3961,3.925,1111122 
TCOON,ioos:station:TCOON:057:1,2016-03-11T09:42:00Z,28.4460,-96.3961,3.923,1111122 
TCOON,ioos:station:TCOON:057:1,2016-03-11T10:24:00Z,28.4460,-96.3961,3.946,1111122 
TCOON,ioos:station:TCOON:057:1,2016-03-11T11:24:00Z,28.4460,-96.3961,3.94,1111122 
TCOON,ioos:station:TCOON:057:1,2016-03-11T12:24:00Z,28.4460,-96.3961,3.942,1111122 
TCOON,ioos:station:TCOON:057:1,2016-03-11T13:24:00Z,28.4460,-96.3961,3.964,1111122 
TCOON,ioos:station:TCOON:057:1,2016-03-11T14:24:00Z,28.4460,-96.3961,3.912,1111122 
TCOON,ioos:station:TCOON:057:1,2016-03-11T15:18:00Z,28.4460,-96.3961,3.912,1111122 
TCOON,ioos:station:TCOON:057:1,2016-03-11T16:24:00Z,28.4460,-96.3961,3.876,1111122 
TCOON,ioos:station:TCOON:057:1,2016-03-11T17:30:00Z,28.4460,-96.3961,3.864,1111122 
TCOON,ioos:station:TCOON:057:1,2016-03-11T18:24:00Z,28.4460,-96.3961,3.834,1111122 
TCOON,ioos:station:TCOON:057:1,2016-03-11T19:24:00Z,28.4460,-96.3961,3.82,1111122 
TCOON,ioos:station:TCOON:057:1,2016-03-11T20:24:00Z,28.4460,-96.3961,3.822,1111122 
TCOON,ioos:station:TCOON:057:1,2016-03-11T21:24:00Z,28.4460,-96.3961,3.826,1111122 
TCOON,ioos:station:TCOON:057:1,2016-03-11T22:24:00Z,28.4460,-96.3961,3.809,1111122 
TCOON,ioos:station:TCOON:057:1,2016-03-11T23:18:00Z,28.4460,-96.3961,3.792,1111122 
TCOON,ioos:station:TCOON:057:1,2016-03-12T00:18:00Z,28.4460,-96.3961,3.791,1111122 
TCOON,ioos:station:TCOON:057:1,2016-03-12T01:18:00Z,28.4460,-96.3961,3.737,1111122 
TCOON,ioos:station:TCOON:057:1,2016-03-12T02:18:00Z,28.4460,-96.3961,3.741,1111122 
TCOON,ioos:station:TCOON:057:1,2016-03-12T03:24:00Z,28.4460,-96.3961,3.725,1111122 
TCOON,ioos:station:TCOON:057:1,2016-03-12T04:24:00Z,28.4460,-96.3961,3.691,1111122 
TCOON,ioos:station:TCOON:057:1,2016-03-12T07:00:00Z,28.4460,-96.3961,3.67,1111122 
TCOON,ioos:station:TCOON:057:1,2016-03-12T07:24:00Z,28.4460,-96.3961,3.677,1111122 
TCOON,ioos:station:TCOON:057:1,2016-03-12T08:24:00Z,28.4460,-96.3961,3.681,1111122 
TCOON,ioos:station:TCOON:057:1,2016-03-12T09:42:00Z,28.4460,-96.3961,3.753,1111122 
TCOON,ioos:station:TCOON:057:1,2016-03-12T10:24:00Z,28.4460,-96.3961,3.772,1111122 
TCOON,ioos:station:TCOON:057:1,2016-03-12T11:24:00Z,28.4460,-96.3961,3.819,1111122 
TCOON,ioos:station:TCOON:057:1,2016-03-12T12:24:00Z,28.4460,-96.3961,3.856,1111122 
TCOON,ioos:station:TCOON:057:1,2016-03-12T13:24:00Z,28.4460,-96.3961,3.895,1111122 
TCOON,ioos:station:TCOON:057:1,2016-03-12T14:24:00Z,28.4460,-96.3961,3.919,1111122 
TCOON,ioos:station:TCOON:057:1,2016-03-12T15:24:00Z,28.4460,-96.3961,3.935,1111122 
TCOON,ioos:station:TCOON:057:1,2016-03-12T16:24:00Z,28.4460,-96.3961,3.897,1111122 
TCOON,ioos:station:TCOON:057:1,2016-03-12T17:24:00Z,28.4460,-96.3961,3.885,1111122 
TCOON,ioos:station:TCOON:057:1,2016-03-12T18:24:00Z,28.4460,-96.3961,3.877,1111122 
TCOON,ioos:station:TCOON:057:1,2016-03-12T19:24:00Z,28.4460,-96.3961,3.856,1111122 
TCOON,ioos:station:TCOON:057:1,2016-03-12T20:24:00Z,28.4460,-96.3961,3.843,1111122 
TCOON,ioos:station:TCOON:057:1,2016-03-12T21:24:00Z,28.4460,-96.3961,3.868,1111122 
TCOON,ioos:station:TCOON:057:1,2016-03-12T22:24:00Z,28.4460,-96.3961,3.862,1111122 
TCOON,ioos:station:TCOON:057:1,2016-03-12T23:24:00Z,28.4460,-96.3961,3.851,1111122 
TCOON,ioos:station:TCOON:057:1,2016-03-13T00:24:00Z,28.4460,-96.3961,3.833,1111122 
TCOON,ioos:station:TCOON:057:1,2016-03-13T01:24:00Z,28.4460,-96.3961,3.806,1111122 
TCOON,ioos:station:TCOON:057:1,2016-03-13T02:24:00Z,28.4460,-96.3961,3.784,1111122 
TCOON,ioos:station:TCOON:057:1,2016-03-13T03:18:00Z,28.4460,-96.3961,3.778,1111122 
TCOON,ioos:station:TCOON:057:1,2016-03-13T04:24:00Z,28.4460,-96.3961,3.752,1111122 
TCOON,ioos:station:TCOON:057:1,2016-03-13T05:24:00Z,28.4460,-96.3961,3.721,1111122 
TCOON,ioos:station:TCOON:057:1,2016-03-13T06:24:00Z,28.4460,-96.3961,3.695,1111122 
TCOON,ioos:station:TCOON:057:1,2016-03-13T07:24:00Z,28.4460,-96.3961,3.671,1111122 
TCOON,ioos:station:TCOON:057:1,2016-03-13T08:24:00Z,28.4460,-96.3961,3.65,1111122 
TCOON,ioos:station:TCOON:057:1,2016-03-13T09:36:00Z,28.4460,-96.3961,3.656,1111122 
TCOON,ioos:station:TCOON:057:1,2016-03-13T10:24:00Z,28.4460,-96.3961,3.655,1111122 
TCOON,ioos:station:TCOON:057:1,2016-03-13T11:24:00Z,28.4460,-96.3961,3.694,1111122 
TCOON,ioos:station:TCOON:057:1,2016-03-13T12:24:00Z,28.4460,-96.3961,3.739,1111122 
TCOON,ioos:station:TCOON:057:1,2016-03-13T13:24:00Z,28.4460,-96.3961,3.795,1111122 
TCOON,ioos:station:TCOON:057:1,2016-03-13T14:24:00Z,28.4460,-96.3961,3.819,1111122 
TCOON,ioos:station:TCOON:057:1,2016-03-13T15:24:00Z,28.4460,-96.3961,3.85,1111122 
TCOON,ioos:station:TCOON:057:1,2016-03-13T16:24:00Z,28.4460,-96.3961,3.847,1111122 